Regional Weather Roundup
Issued by NWS

Home | Current Version | Previous Version | Text Only | Print | Product List | Glossary On
Versions: 1 2 3 4 5 6 7 8 9 10 11 12 13 14 15 16 17 18 19 20 21 22 23 24 25 26 27 28 29 30 31 32 33 34 35 36 37 38 39 40 41 42 43 44 45 46 47 48 49 50
672
ASUS43 KLSX 032110
RWRMO

WEATHER SUMMARY FOR MISSOURI
NATIONAL WEATHER SERVICE SPRINGFIELD MO
300 PM CST SAT DEC 03 2016

NOTE: "FAIR" INDICATES FEW OR NO CLOUDS BELOW 12,000 FEET WITH NO
       SIGNIFICANT WEATHER AND/OR OBSTRUCTIONS TO VISIBILITY.
       CURRENT SKY AND/OR WEATHER CONDITIONS ARE NOT AVAILABLE FOR
       CHILLICOTHE AND FARMINGTON.

MOZ001>031-035>038-043-044-053-054-032200-
...NORTHERN AND WESTERN MISSOURI...

CITY           SKY/WX    TMP DP  RH WIND       PRES   REMARKS
KANSAS CTY INT CLOUDY    44  30  57 E9        30.17F
KANSAS C DTWN  CLOUDY    48  31  51 E6        30.17F
LEE`S SUMMIT   PTSUNNY   49  30  48 E8        30.17F
ST JOSEPH      CLOUDY    44  30  57 SE5       30.18F
CHILLICOTHE      N/A     45  31  58 SE8       30.23F
KIRKSVILLE     CLOUDY    44  33  65 SE8       30.24F

$$
MOZ066>068-077>081-088>096-101>105-032200-
...SOUTHWEST MISSOURI...

CITY           SKY/WX    TMP DP  RH WIND       PRES   REMARKS
SPRINGFIELD    CLOUDY    46  32  58 SE10      30.18S
JOPLIN         LGT RAIN  50  35  56 SE14      30.16F
BRANSON        CLOUDY    41  36  81 E13G18    30.20S

$$
MOZ032>034-039>042-045>050-055>058-069>072-032200-
...CENTRAL MISSOURI...

CITY           SKY/WX    TMP DP  RH WIND       PRES   REMARKS
COLUMBIA       MOSUNNY   45  32  60 E8        30.23F
JEFFERSON CITY CLOUDY    46  31  55 E7        30.24F
ROLLA          CLOUDY    44  31  60 SE7       30.23S
SEDALIA        MOSUNNY   48  30  49 E13       30.21F
WHITEMAN AFB   MOSUNNY   49  31  49 SE9       30.18F
WARRENSBURG    CLOUDY    50  30  46 E5        30.19S
OSAGE BEACH    PTSUNNY   47  31  53 SE6       30.23S

$$
MOZ051-052-059>065-032200-
...EAST CENTRAL MISSOURI...

CITY           SKY/WX    TMP DP  RH WIND       PRES   REMARKS
ST LOUIS INTL  CLOUDY    45  29  53 SE8       30.29F
SPIRIT OF STL  CLOUDY    44  32  62 SE6       30.28F
ST CHARLES     CLOUDY    44  34  67 E9        30.29F

$$
MOZ072>076-082>087-097>100-106>115-032200-
...SOUTH CENTRAL AND SOUTHEAST MISSOURI...

CITY           SKY/WX    TMP DP  RH WIND       PRES   REMARKS
CAPE GIRARDEAU CLOUDY    44  30  57 E7        30.28F
FARMINGTON     CLOUDY    42  31  64 E7        30.26F
POPLAR BLUFF   CLOUDY    44  33  65 E7        30.28F
WEST PLAINS    LGT RAIN  43  33  68 SE12      30.23F

$$




USA.gov is the U.S. government's official web portal to all federal, state and local government web resources and services.